Year,Month,Day,Hour,Minute,Value (Times are PST for temperature in C)
2011,10,24,00,00,4.20
2011,10,24,00,01,4.10
2011,10,24,00,02,4.10
2011,10,24,00,03,4.10
2011,10,24,00,04,4.10
2011,10,24,00,05,4.10
2011,10,24,00,06,4.10
2011,10,24,00,07,4.10
2011,10,24,00,08,4.10
2011,10,24,00,09,4.10
2011,10,24,00,10,4.10
2011,10,24,00,11,4.10
2011,10,24,00,12,4.10
2011,10,24,00,13,4.20
2011,10,24,00,14,4.20
2011,10,24,00,15,4.20
2011,10,24,00,16,4.20
2011,10,24,00,17,4.20
2011,10,24,00,18,4.20
2011,10,24,00,19,4.20
2011,10,24,00,20,4.10
2011,10,24,00,21,4.10
2011,10,24,00,22,4.10
2011,10,24,00,23,4.10
2011,10,24,00,24,4.10
2011,10,24,00,25,4.10
2011,10,24,00,26,4.10
2011,10,24,00,27,4.10
2011,10,24,00,28,4.10
2011,10,24,00,29,4.10
2011,10,24,00,30,4.10
2011,10,24,00,31,4.10
2011,10,24,00,32,4.10
2011,10,24,00,33,4.10
2011,10,24,00,34,4.10
2011,10,24,00,35,4.10
2011,10,24,00,36,4.10
2011,10,24,00,37,4.10
2011,10,24,00,38,4.10
2011,10,24,00,39,4.10
2011,10,24,00,40,4.10
2011,10,24,00,41,4.10
2011,10,24,00,42,4.10
2011,10,24,00,43,4.10
2011,10,24,00,44,4.00
2011,10,24,00,45,4.00
2011,10,24,00,46,4.00
2011,10,24,00,47,4.00
2011,10,24,00,48,4.00
2011,10,24,00,49,4.00
2011,10,24,00,50,3.90
2011,10,24,00,51,3.90
2011,10,24,00,52,3.90
2011,10,24,00,53,3.90
2011,10,24,00,54,3.80
2011,10,24,00,55,3.80
2011,10,24,00,56,3.80
2011,10,24,00,57,3.80
2011,10,24,00,58,3.80
2011,10,24,00,59,3.70
2011,10,24,01,00,3.70
2011,10,24,01,01,3.70
2011,10,24,01,02,3.70
2011,10,24,01,03,3.70
2011,10,24,01,04,3.70
2011,10,24,01,05,3.70
2011,10,24,01,06,3.70
2011,10,24,01,07,3.70
2011,10,24,01,08,3.70
2011,10,24,01,09,3.70
2011,10,24,01,10,3.70
2011,10,24,01,11,3.70
2011,10,24,01,12,3.70
2011,10,24,01,13,3.70
2011,10,24,01,14,3.70
2011,10,24,01,15,3.70
2011,10,24,01,16,3.70
2011,10,24,01,17,3.80
2011,10,24,01,18,3.80
2011,10,24,01,19,3.80
2011,10,24,01,20,3.80
2011,10,24,01,21,3.80
2011,10,24,01,22,3.80
2011,10,24,01,23,3.80
2011,10,24,01,24,3.70
2011,10,24,01,25,3.70
2011,10,24,01,26,3.70
2011,10,24,01,27,3.70
2011,10,24,01,28,3.70
2011,10,24,01,29,3.70
2011,10,24,01,30,3.70
2011,10,24,01,31,3.60
2011,10,24,01,32,3.60
2011,10,24,01,33,3.60
2011,10,24,01,34,3.60
2011,10,24,01,35,3.60
2011,10,24,01,36,3.60
2011,10,24,01,37,3.60
2011,10,24,01,38,3.60
2011,10,24,01,39,3.60
2011,10,24,01,40,3.60
2011,10,24,01,41,3.60
2011,10,24,01,42,3.50
2011,10,24,01,43,3.60
2011,10,24,01,44,3.60
2011,10,24,01,45,3.60
2011,10,24,01,46,3.60
2011,10,24,01,47,3.60
2011,10,24,01,48,3.60
2011,10,24,01,49,3.60
2011,10,24,01,50,3.60
2011,10,24,01,51,3.60
2011,10,24,01,52,3.60
2011,10,24,01,53,3.60
2011,10,24,01,54,3.50
2011,10,24,01,55,3.50
2011,10,24,01,56,3.50
2011,10,24,01,57,3.50
2011,10,24,01,58,3.60
2011,10,24,01,59,3.60
2011,10,24,02,00,3.70
2011,10,24,02,01,3.80
2011,10,24,02,02,3.80
2011,10,24,02,03,3.90
2011,10,24,02,04,4.00
2011,10,24,02,05,4.20
2011,10,24,02,06,4.30
2011,10,24,02,07,4.40
2011,10,24,02,08,4.60
2011,10,24,02,09,4.70
2011,10,24,02,10,4.80
2011,10,24,02,11,4.90
2011,10,24,02,12,5.00
2011,10,24,02,13,5.00
2011,10,24,02,14,5.10
2011,10,24,02,15,5.10
2011,10,24,02,16,5.20
2011,10,24,02,17,5.20
2011,10,24,02,18,5.30
2011,10,24,02,19,5.30
2011,10,24,02,20,5.40
2011,10,24,02,21,5.40
2011,10,24,02,22,5.50
2011,10,24,02,23,5.50
2011,10,24,02,24,5.60
2011,10,24,02,25,5.70
2011,10,24,02,26,5.70
2011,10,24,02,27,5.80
2011,10,24,02,28,5.80
2011,10,24,02,29,5.90
2011,10,24,02,30,5.90
2011,10,24,02,31,6.00
2011,10,24,02,32,6.10
2011,10,24,02,33,6.10
2011,10,24,02,34,6.10
2011,10,24,02,35,6.20
2011,10,24,02,36,6.20
2011,10,24,02,37,6.20
2011,10,24,02,38,6.20
2011,10,24,02,39,6.30
2011,10,24,02,40,6.30
2011,10,24,02,41,6.40
2011,10,24,02,42,6.40
2011,10,24,02,43,6.40
2011,10,24,02,44,6.40
2011,10,24,02,45,6.40
2011,10,24,02,46,6.50
2011,10,24,02,47,6.50
2011,10,24,02,48,6.50
2011,10,24,02,49,6.60
2011,10,24,02,50,6.60
2011,10,24,02,51,6.60
2011,10,24,02,52,6.60
2011,10,24,02,53,6.70
2011,10,24,02,54,6.70
2011,10,24,02,55,6.70
2011,10,24,02,56,6.70
2011,10,24,02,57,6.80
2011,10,24,02,58,6.80
2011,10,24,02,59,6.90
2011,10,24,03,00,6.90
2011,10,24,03,01,7.00
2011,10,24,03,02,7.00
2011,10,24,03,06,7.10
2011,10,24,03,07,7.10
2011,10,24,03,08,7.10
2011,10,24,03,09,7.20
2011,10,24,03,10,7.20
2011,10,24,03,11,7.20
2011,10,24,03,12,7.20
2011,10,24,03,13,7.20
2011,10,24,03,14,7.30
2011,10,24,03,15,7.30
2011,10,24,03,16,7.30
2011,10,24,03,17,7.30
2011,10,24,03,18,7.30
2011,10,24,03,19,7.30
2011,10,24,03,20,7.30
2011,10,24,03,21,7.30
2011,10,24,03,22,7.30
2011,10,24,03,23,7.30
2011,10,24,03,24,7.30
2011,10,24,03,25,7.20
2011,10,24,03,26,7.20
2011,10,24,03,27,7.20
2011,10,24,03,28,7.20
2011,10,24,03,29,7.20
2011,10,24,03,30,7.20
2011,10,24,03,31,7.20
2011,10,24,03,32,7.20
2011,10,24,03,33,7.20
2011,10,24,03,34,7.30
2011,10,24,03,35,7.30
2011,10,24,03,36,7.30
2011,10,24,03,37,7.30
2011,10,24,03,38,7.30
2011,10,24,03,39,7.20
2011,10,24,03,40,7.20
2011,10,24,03,41,7.20
2011,10,24,03,42,7.20
2011,10,24,03,43,7.10
2011,10,24,03,44,7.10
2011,10,24,03,45,7.10
2011,10,24,03,46,7.10
2011,10,24,03,47,7.10
2011,10,24,03,48,7.00
2011,10,24,03,49,7.00
2011,10,24,03,50,7.00
2011,10,24,03,51,7.00
2011,10,24,03,52,6.90
2011,10,24,03,53,6.90
2011,10,24,03,54,6.90
2011,10,24,03,55,6.90
2011,10,24,03,56,6.80
2011,10,24,03,57,6.80
2011,10,24,03,58,6.80
2011,10,24,03,59,6.80
2011,10,24,04,00,6.80
2011,10,24,04,01,6.80
2011,10,24,04,02,6.80
2011,10,24,04,03,6.80
2011,10,24,04,04,6.80
2011,10,24,04,05,6.80
2011,10,24,04,06,6.70
2011,10,24,04,07,6.70
2011,10,24,04,08,6.70
2011,10,24,04,09,6.60
2011,10,24,04,10,6.60
2011,10,24,04,11,6.60
2011,10,24,04,12,6.60
2011,10,24,04,13,6.60
2011,10,24,04,14,6.60
2011,10,24,04,15,6.50
2011,10,24,04,16,6.50
2011,10,24,04,17,6.50
2011,10,24,04,18,6.50
2011,10,24,04,19,6.40
2011,10,24,04,20,6.40
2011,10,24,04,21,6.40
2011,10,24,04,22,6.40
2011,10,24,04,23,6.30
2011,10,24,04,24,6.30
2011,10,24,04,25,6.30
2011,10,24,04,26,6.30
2011,10,24,04,27,6.30
2011,10,24,04,28,6.30
2011,10,24,04,29,6.30
2011,10,24,04,30,6.30
2011,10,24,04,31,6.30
2011,10,24,04,32,6.30
2011,10,24,04,33,6.30
2011,10,24,04,34,6.30
2011,10,24,04,35,6.30
2011,10,24,04,36,6.30
2011,10,24,04,37,6.40
2011,10,24,04,38,6.40
2011,10,24,04,39,6.40
2011,10,24,04,40,6.30
2011,10,24,04,41,6.30
2011,10,24,04,42,6.30
2011,10,24,04,43,6.30
2011,10,24,04,44,6.30
2011,10,24,04,45,6.30
2011,10,24,04,46,6.30
2011,10,24,04,47,6.30
2011,10,24,04,48,6.30
2011,10,24,04,49,6.30
2011,10,24,04,50,6.30
2011,10,24,04,51,6.20
2011,10,24,04,52,6.20
2011,10,24,04,53,6.10
2011,10,24,04,54,6.10
2011,10,24,04,55,6.00
2011,10,24,04,56,6.00
2011,10,24,04,57,5.90
2011,10,24,04,58,5.90
2011,10,24,04,59,5.80
2011,10,24,05,00,5.80
2011,10,24,05,01,5.70
2011,10,24,05,02,5.70
2011,10,24,05,03,5.70
2011,10,24,05,04,5.70
2011,10,24,05,05,5.60
2011,10,24,05,06,5.60
2011,10,24,05,07,5.60
2011,10,24,05,08,5.60
2011,10,24,05,09,5.50
2011,10,24,05,10,5.50
2011,10,24,05,11,5.50
2011,10,24,05,12,5.40
2011,10,24,05,13,5.40
2011,10,24,05,14,5.40
2011,10,24,05,15,5.40
2011,10,24,05,16,5.30
2011,10,24,05,17,5.30
2011,10,24,05,18,5.30
2011,10,24,05,19,5.30
2011,10,24,05,20,5.30
2011,10,24,05,21,5.20
2011,10,24,05,22,5.20
2011,10,24,05,23,5.20
2011,10,24,05,24,5.10
2011,10,24,05,25,5.10
2011,10,24,05,26,5.10
2011,10,24,05,27,5.10
2011,10,24,05,28,5.00
2011,10,24,05,29,5.00
2011,10,24,05,30,5.00
2011,10,24,05,31,4.90
2011,10,24,05,32,4.90
2011,10,24,05,33,4.90
2011,10,24,05,34,4.90
2011,10,24,05,35,4.90
2011,10,24,05,36,4.90
2011,10,24,05,37,4.90
2011,10,24,05,38,4.90
2011,10,24,05,39,4.90
2011,10,24,05,40,4.80
2011,10,24,05,41,4.80
2011,10,24,05,42,4.80
2011,10,24,05,43,4.80
2011,10,24,05,44,4.80
2011,10,24,05,45,4.80
2011,10,24,05,46,4.80
2011,10,24,05,47,4.80
2011,10,24,05,48,4.80
2011,10,24,05,49,4.80
2011,10,24,05,50,4.80
2011,10,24,05,51,4.80
2011,10,24,05,52,4.80
2011,10,24,05,53,4.80
2011,10,24,05,54,4.70
2011,10,24,05,55,4.70
2011,10,24,05,56,4.70
2011,10,24,05,57,4.70
2011,10,24,05,58,4.70
2011,10,24,05,59,4.70
2011,10,24,06,00,4.70
2011,10,24,06,01,4.70
2011,10,24,06,02,4.70
2011,10,24,06,03,4.60
2011,10,24,06,04,4.60
2011,10,24,06,05,4.60
2011,10,24,06,06,4.50
2011,10,24,06,07,4.50
2011,10,24,06,08,4.50
2011,10,24,06,09,4.40
2011,10,24,06,10,4.40
2011,10,24,06,11,4.40
2011,10,24,06,12,4.40
2011,10,24,06,13,4.40
2011,10,24,06,14,4.30
2011,10,24,06,15,4.30
2011,10,24,06,16,4.30
2011,10,24,06,17,4.30
2011,10,24,06,18,4.30
2011,10,24,06,19,4.20
2011,10,24,06,20,4.20
2011,10,24,06,21,4.20
2011,10,24,06,22,4.20
2011,10,24,06,23,4.20
2011,10,24,06,24,4.20
2011,10,24,06,25,4.20
2011,10,24,06,26,4.20
2011,10,24,06,27,4.20
2011,10,24,06,28,4.20
2011,10,24,06,29,4.10
2011,10,24,06,30,4.10
2011,10,24,06,31,4.10
2011,10,24,06,32,4.10
2011,10,24,06,33,4.00
2011,10,24,06,34,4.00
2011,10,24,06,35,4.00
2011,10,24,06,36,4.00
2011,10,24,06,37,4.00
2011,10,24,06,38,3.90
2011,10,24,06,39,3.90
2011,10,24,06,40,3.90
2011,10,24,06,41,3.90
2011,10,24,06,42,3.90
2011,10,24,06,43,3.80
2011,10,24,06,44,3.80
2011,10,24,06,45,3.80
2011,10,24,06,46,3.80
2011,10,24,06,47,3.80
2011,10,24,06,48,3.80
2011,10,24,06,49,3.80
2011,10,24,06,50,3.80
2011,10,24,06,51,3.80
2011,10,24,06,52,3.70
2011,10,24,06,53,3.70
2011,10,24,06,54,3.70
2011,10,24,06,55,3.70
2011,10,24,06,56,3.70
2011,10,24,06,57,3.70
2011,10,24,06,58,3.70
2011,10,24,06,59,3.70
2011,10,24,07,00,3.60
2011,10,24,07,01,3.60
2011,10,24,07,02,3.60
2011,10,24,07,03,3.60
2011,10,24,07,04,3.60
2011,10,24,07,05,3.60
2011,10,24,07,06,3.50
2011,10,24,07,07,3.50
2011,10,24,07,08,3.50
2011,10,24,07,09,3.50
2011,10,24,07,10,3.50
2011,10,24,07,11,3.60
2011,10,24,07,12,3.60
2011,10,24,07,13,3.50
2011,10,24,07,14,3.50
2011,10,24,07,15,3.50
2011,10,24,07,16,3.50
2011,10,24,07,17,3.40
2011,10,24,07,18,3.40
2011,10,24,07,19,3.40
2011,10,24,07,20,3.40
2011,10,24,07,21,3.40
2011,10,24,07,22,3.40
2011,10,24,07,23,3.40
2011,10,24,07,24,3.40
2011,10,24,07,25,3.40
2011,10,24,07,26,3.40
2011,10,24,07,27,3.40
2011,10,24,07,28,3.30
2011,10,24,07,29,3.30
2011,10,24,07,30,3.30
2011,10,24,07,31,3.30
2011,10,24,07,32,3.30
2011,10,24,07,33,3.30
2011,10,24,07,34,3.30
2011,10,24,07,35,3.30
2011,10,24,07,36,3.30
2011,10,24,07,37,3.30
2011,10,24,07,38,3.30
2011,10,24,07,39,3.30
2011,10,24,07,40,3.20
2011,10,24,07,41,3.20
2011,10,24,07,42,3.20
2011,10,24,07,43,3.20
2011,10,24,07,44,3.20
2011,10,24,07,45,3.20
2011,10,24,07,46,3.20
2011,10,24,07,47,3.10
2011,10,24,07,48,3.10
2011,10,24,07,49,3.10
2011,10,24,07,50,3.10
2011,10,24,07,51,3.10
2011,10,24,07,52,3.10
2011,10,24,07,53,3.10
2011,10,24,07,54,3.10
2011,10,24,07,55,3.10
2011,10,24,07,56,3.00
2011,10,24,07,57,3.00
2011,10,24,07,58,3.00
2011,10,24,07,59,3.00
2011,10,24,08,00,3.00
2011,10,24,08,01,3.10
2011,10,24,08,02,3.10
2011,10,24,08,03,3.10
2011,10,24,08,04,3.10
2011,10,24,08,05,3.10
2011,10,24,08,06,3.10
2011,10,24,08,07,3.20
2011,10,24,08,08,3.20
2011,10,24,08,09,3.20
2011,10,24,08,10,3.20
2011,10,24,08,11,3.20
2011,10,24,08,12,3.30
2011,10,24,08,13,3.30
2011,10,24,08,14,3.30
2011,10,24,08,15,3.30
2011,10,24,08,16,3.40
2011,10,24,08,17,3.40
2011,10,24,08,18,3.40
2011,10,24,08,19,3.50
2011,10,24,08,20,3.50
2011,10,24,08,21,3.50
2011,10,24,08,22,3.60
2011,10,24,08,23,3.60
2011,10,24,08,24,3.60
2011,10,24,08,25,3.70
2011,10,24,08,26,3.70
2011,10,24,08,27,3.70
2011,10,24,08,28,3.80
2011,10,24,08,29,3.80
2011,10,24,08,30,3.80
2011,10,24,08,31,3.90
2011,10,24,08,32,3.90
2011,10,24,08,33,3.90
2011,10,24,08,34,3.90
2011,10,24,08,35,3.90
2011,10,24,08,36,3.90
2011,10,24,08,37,4.00
2011,10,24,08,38,4.00
2011,10,24,08,39,4.00
2011,10,24,08,40,4.00
2011,10,24,08,41,4.10
2011,10,24,08,42,4.10
2011,10,24,08,43,4.10
2011,10,24,08,44,4.10
2011,10,24,08,45,4.20
2011,10,24,08,46,4.20
2011,10,24,08,47,4.20
2011,10,24,08,48,4.20
2011,10,24,08,49,4.20
2011,10,24,08,50,4.30
2011,10,24,08,51,4.30
2011,10,24,08,52,4.30
2011,10,24,08,53,4.30
2011,10,24,08,54,4.30
2011,10,24,08,55,4.30
2011,10,24,08,56,4.40
2011,10,24,08,57,4.40
2011,10,24,08,58,4.40
2011,10,24,08,59,4.50
2011,10,24,09,00,4.50
2011,10,24,09,01,4.60
2011,10,24,09,02,4.60
2011,10,24,09,03,4.60
2011,10,24,09,04,4.60
2011,10,24,09,05,4.70
2011,10,24,09,06,4.70
2011,10,24,09,07,4.70
2011,10,24,09,08,4.80
2011,10,24,09,09,4.80
2011,10,24,09,10,4.80
2011,10,24,09,11,4.90
2011,10,24,09,12,4.90
2011,10,24,09,13,5.00
2011,10,24,09,14,5.00
2011,10,24,09,15,5.10
2011,10,24,09,16,5.20
2011,10,24,09,17,5.20
2011,10,24,09,18,5.30
2011,10,24,09,19,5.40
2011,10,24,09,20,5.50
2011,10,24,09,21,5.60
2011,10,24,09,22,5.70
2011,10,24,09,23,5.80
2011,10,24,09,24,5.90
2011,10,24,09,25,6.00
2011,10,24,09,26,6.20
2011,10,24,09,27,6.30
2011,10,24,09,28,6.40
2011,10,24,09,29,6.50
2011,10,24,09,30,6.60
2011,10,24,09,31,6.70
2011,10,24,09,32,6.90
2011,10,24,09,33,7.00
2011,10,24,09,34,7.10
2011,10,24,09,35,7.30
2011,10,24,09,36,7.40
2011,10,24,09,37,7.50
2011,10,24,09,38,7.60
2011,10,24,09,39,7.70
2011,10,24,09,40,7.70
2011,10,24,09,41,7.80
2011,10,24,09,42,7.90
2011,10,24,09,43,7.90
2011,10,24,09,44,8.00
2011,10,24,09,45,8.10
2011,10,24,09,46,8.20
2011,10,24,09,47,8.20
2011,10,24,09,48,8.20
2011,10,24,09,49,8.30
2011,10,24,09,50,8.30
2011,10,24,09,51,8.40
2011,10,24,09,52,8.40
2011,10,24,09,53,8.40
2011,10,24,09,54,8.40
2011,10,24,09,55,8.50
2011,10,24,09,56,8.50
2011,10,24,09,57,8.50
2011,10,24,09,58,8.60
2011,10,24,09,59,8.60
2011,10,24,10,00,8.60
2011,10,24,10,01,8.60
2011,10,24,10,02,8.70
2011,10,24,10,03,8.70
2011,10,24,10,04,8.70
2011,10,24,10,05,8.70
2011,10,24,10,06,8.80
2011,10,24,10,07,8.80
2011,10,24,10,08,8.80
2011,10,24,10,09,8.80
2011,10,24,10,10,8.80
2011,10,24,10,11,8.90
2011,10,24,10,12,8.90
2011,10,24,10,13,9.00
2011,10,24,10,14,9.00
2011,10,24,10,15,9.00
2011,10,24,10,16,9.10
2011,10,24,10,17,9.10
2011,10,24,10,18,9.10
2011,10,24,10,19,9.10
2011,10,24,10,20,9.20
2011,10,24,10,21,9.20
2011,10,24,10,22,9.20
2011,10,24,10,23,9.30
2011,10,24,10,24,9.30
2011,10,24,10,25,9.30
2011,10,24,10,26,9.30
2011,10,24,10,27,9.30
2011,10,24,10,28,9.40
2011,10,24,10,29,9.40
2011,10,24,10,30,9.40
2011,10,24,10,31,9.40
2011,10,24,10,32,9.50
2011,10,24,10,33,9.50
2011,10,24,10,34,9.50
2011,10,24,10,35,9.60
2011,10,24,10,36,9.60
2011,10,24,10,37,9.60
2011,10,24,10,38,9.60
2011,10,24,10,39,9.70
2011,10,24,10,40,9.70
2011,10,24,10,41,9.70
2011,10,24,10,42,9.70
2011,10,24,10,43,9.80
2011,10,24,10,44,9.80
2011,10,24,10,45,9.80
2011,10,24,10,46,9.80
2011,10,24,10,47,9.80
2011,10,24,10,48,9.70
2011,10,24,10,49,9.70
2011,10,24,10,50,9.70
2011,10,24,10,51,9.80
2011,10,24,10,52,9.80
2011,10,24,10,53,9.80
2011,10,24,10,54,9.80
2011,10,24,10,55,9.80
2011,10,24,10,56,9.90
2011,10,24,10,57,9.90
2011,10,24,10,58,9.90
2011,10,24,10,59,10.00
2011,10,24,11,00,10.00
2011,10,24,11,01,10.10
2011,10,24,11,02,10.20
2011,10,24,11,03,10.20
2011,10,24,11,04,10.20
2011,10,24,11,05,10.20
2011,10,24,11,06,10.30
2011,10,24,11,07,10.30
2011,10,24,11,08,10.30
2011,10,24,11,09,10.30
2011,10,24,11,10,10.40
2011,10,24,11,11,10.40
2011,10,24,11,12,10.40
2011,10,24,11,13,10.40
2011,10,24,11,14,10.50
2011,10,24,11,15,10.50
2011,10,24,11,16,10.50
2011,10,24,11,17,10.60
2011,10,24,11,18,10.60
2011,10,24,11,19,10.60
2011,10,24,11,20,10.60
2011,10,24,11,21,10.60
2011,10,24,11,22,10.60
2011,10,24,11,23,10.60
2011,10,24,11,24,10.60
2011,10,24,11,25,10.70
2011,10,24,11,26,10.70
2011,10,24,11,27,10.60
2011,10,24,11,28,10.60
2011,10,24,11,29,10.60
2011,10,24,11,30,10.70
2011,10,24,11,31,10.70
2011,10,24,11,32,10.70
2011,10,24,11,33,10.70
2011,10,24,11,34,10.70
2011,10,24,11,35,10.70
2011,10,24,11,36,10.80
2011,10,24,11,37,10.80
2011,10,24,11,38,10.80
2011,10,24,11,39,10.80
2011,10,24,11,40,10.80
2011,10,24,11,41,10.90
2011,10,24,11,42,10.90
2011,10,24,11,43,11.00
2011,10,24,11,44,11.00
2011,10,24,11,45,11.10
2011,10,24,11,46,11.10
2011,10,24,11,47,11.10
2011,10,24,11,48,11.20
2011,10,24,11,49,11.20
2011,10,24,11,50,11.20
2011,10,24,11,51,11.30
2011,10,24,11,52,11.30
2011,10,24,11,53,11.30
2011,10,24,11,54,11.30
2011,10,24,11,55,11.40
2011,10,24,11,56,11.40
2011,10,24,11,57,11.40
2011,10,24,11,58,11.40
2011,10,24,11,59,11.40
2011,10,24,12,00,11.40
2011,10,24,12,01,11.30
2011,10,24,12,02,11.30
2011,10,24,12,03,11.30
2011,10,24,12,04,11.40
2011,10,24,12,05,11.40
2011,10,24,12,06,11.40
2011,10,24,12,07,11.50
2011,10,24,12,08,11.50
2011,10,24,12,09,11.60
2011,10,24,12,10,11.60
2011,10,24,12,11,11.60
2011,10,24,12,12,11.60
2011,10,24,12,13,11.60
2011,10,24,12,14,11.60
2011,10,24,12,15,11.60
2011,10,24,12,16,11.70
2011,10,24,12,17,11.70
2011,10,24,12,18,11.70
2011,10,24,12,19,11.70
2011,10,24,12,20,11.60
2011,10,24,12,21,11.60
2011,10,24,12,22,11.60
2011,10,24,12,23,11.60
2011,10,24,12,24,11.50
2011,10,24,12,25,11.50
2011,10,24,12,26,11.50
2011,10,24,12,27,11.50
2011,10,24,12,28,11.60
2011,10,24,12,29,11.60
2011,10,24,12,30,11.50
2011,10,24,12,31,11.50
2011,10,24,12,32,11.50
2011,10,24,12,33,11.40
2011,10,24,12,34,11.40
2011,10,24,12,35,11.30
2011,10,24,12,36,11.30
2011,10,24,12,37,11.30
2011,10,24,12,38,11.30
2011,10,24,12,39,11.40
2011,10,24,12,40,11.40
2011,10,24,12,41,11.40
2011,10,24,12,42,11.40
2011,10,24,12,43,11.40
2011,10,24,12,44,11.40
2011,10,24,12,45,11.40
2011,10,24,12,46,11.40
2011,10,24,12,47,11.40
2011,10,24,12,48,11.40
2011,10,24,12,49,11.40
2011,10,24,12,50,11.40
2011,10,24,12,51,11.40
2011,10,24,12,52,11.40
2011,10,24,12,53,11.40
2011,10,24,12,54,11.30
2011,10,24,12,55,11.30
2011,10,24,12,56,11.30
2011,10,24,12,57,11.30
2011,10,24,12,58,11.30
2011,10,24,12,59,11.30
2011,10,24,13,00,11.30
2011,10,24,13,01,11.30
2011,10,24,13,02,11.30
2011,10,24,13,03,11.30
2011,10,24,13,04,11.30
2011,10,24,13,05,11.30
2011,10,24,13,06,11.30
2011,10,24,13,07,11.30
2011,10,24,13,08,11.30
2011,10,24,13,09,11.30
2011,10,24,13,10,11.20
2011,10,24,13,11,11.20
2011,10,24,13,12,11.20
2011,10,24,13,13,11.20
2011,10,24,13,14,11.20
2011,10,24,13,15,11.20
2011,10,24,13,16,11.20
2011,10,24,13,17,11.20
2011,10,24,13,18,11.20
2011,10,24,13,19,11.20
2011,10,24,13,20,11.20
2011,10,24,13,21,11.20
2011,10,24,13,22,11.20
2011,10,24,13,23,11.20
2011,10,24,13,24,11.20
2011,10,24,13,25,11.20
2011,10,24,13,26,11.20
2011,10,24,13,27,11.30
2011,10,24,13,28,11.30
2011,10,24,13,29,11.40
2011,10,24,13,30,11.40
2011,10,24,13,31,11.40
2011,10,24,13,32,11.40
2011,10,24,13,33,11.40
2011,10,24,13,34,11.30
2011,10,24,13,35,11.30
2011,10,24,13,36,11.30
2011,10,24,13,37,11.30
2011,10,24,13,38,11.20
2011,10,24,13,39,11.20
2011,10,24,13,40,11.20
2011,10,24,13,41,11.10
2011,10,24,13,42,11.10
2011,10,24,13,43,11.10
2011,10,24,13,44,11.20
2011,10,24,13,45,11.20
2011,10,24,13,46,11.20
2011,10,24,13,47,11.30
2011,10,24,13,48,11.30
2011,10,24,13,49,11.30
2011,10,24,13,50,11.30
2011,10,24,13,51,11.30
2011,10,24,13,52,11.20
2011,10,24,13,53,11.20
2011,10,24,13,54,11.20
2011,10,24,13,55,11.30
2011,10,24,13,56,11.30
2011,10,24,13,57,11.30
2011,10,24,13,58,11.30
2011,10,24,13,59,11.30
2011,10,24,14,00,11.30
2011,10,24,14,01,11.30
2011,10,24,14,02,11.30
2011,10,24,14,03,11.30
2011,10,24,14,04,11.30
2011,10,24,14,05,11.40
2011,10,24,14,06,11.40
2011,10,24,14,07,11.50
2011,10,24,14,08,11.50
2011,10,24,14,09,11.50
2011,10,24,14,10,11.60
2011,10,24,14,11,11.60
2011,10,24,14,12,11.60
2011,10,24,14,13,11.60
2011,10,24,14,14,11.60
2011,10,24,14,15,11.60
2011,10,24,14,16,11.50
2011,10,24,14,17,11.40
2011,10,24,14,18,11.40
2011,10,24,14,19,11.40
2011,10,24,14,20,11.40
2011,10,24,14,21,11.30
2011,10,24,14,22,11.30
2011,10,24,14,23,11.30
2011,10,24,14,24,11.40
2011,10,24,14,25,11.40
2011,10,24,14,26,11.30
2011,10,24,14,27,11.40
2011,10,24,14,28,11.40
2011,10,24,14,29,11.40
2011,10,24,14,30,11.40
2011,10,24,14,31,11.40
2011,10,24,14,32,11.40
2011,10,24,14,33,11.40
2011,10,24,14,34,11.40
2011,10,24,14,35,11.40
2011,10,24,14,36,11.50
2011,10,24,14,37,11.50
2011,10,24,14,38,11.50
2011,10,24,14,39,11.60
2011,10,24,14,40,11.60
2011,10,24,14,41,11.60
2011,10,24,14,42,11.60
2011,10,24,14,43,11.60
2011,10,24,14,44,11.60
2011,10,24,14,45,11.60
2011,10,24,14,46,11.60
2011,10,24,14,47,11.60
2011,10,24,14,48,11.60
2011,10,24,14,49,11.70
2011,10,24,14,50,11.70
2011,10,24,14,51,11.80
2011,10,24,14,52,11.80
2011,10,24,14,53,11.90
2011,10,24,14,54,12.00
2011,10,24,14,55,12.10
2011,10,24,14,56,12.10
2011,10,24,14,57,12.10
2011,10,24,14,58,12.20
2011,10,24,14,59,12.20
2011,10,24,15,00,12.10
2011,10,24,15,01,12.00
2011,10,24,15,02,11.90
2011,10,24,15,03,11.80
2011,10,24,15,04,11.80
2011,10,24,15,05,11.70
2011,10,24,15,06,11.70
2011,10,24,15,07,11.60
2011,10,24,15,08,11.50
2011,10,24,15,09,11.50
2011,10,24,15,10,11.40
2011,10,24,15,11,11.40
2011,10,24,15,12,11.30
2011,10,24,15,13,11.30
2011,10,24,15,14,11.20
2011,10,24,15,15,11.20
2011,10,24,15,16,11.10
2011,10,24,15,17,11.00
2011,10,24,15,18,10.90
2011,10,24,15,19,10.80
2011,10,24,15,20,10.80
2011,10,24,15,21,10.70
2011,10,24,15,22,10.70
2011,10,24,15,23,10.60
2011,10,24,15,24,10.60
2011,10,24,15,25,10.60
2011,10,24,15,26,10.50
2011,10,24,15,27,10.50
2011,10,24,15,28,10.50
2011,10,24,15,29,10.50
2011,10,24,15,30,10.40
2011,10,24,15,31,10.40
2011,10,24,15,32,10.40
2011,10,24,15,33,10.40
2011,10,24,15,34,10.30
2011,10,24,15,35,10.20
2011,10,24,15,36,10.10
2011,10,24,15,37,10.10
2011,10,24,15,38,10.00
2011,10,24,15,39,10.00
2011,10,24,15,40,10.00
2011,10,24,15,41,10.00
2011,10,24,15,42,10.00
2011,10,24,15,43,10.00
2011,10,24,15,44,10.00
2011,10,24,15,45,10.00
2011,10,24,15,46,10.00
2011,10,24,15,47,10.00
2011,10,24,15,48,10.00
2011,10,24,15,49,10.00
2011,10,24,15,50,10.00
2011,10,24,15,51,10.00
2011,10,24,15,52,10.00
2011,10,24,15,53,10.00
2011,10,24,15,54,10.00
2011,10,24,15,55,10.00
2011,10,24,15,56,10.00
2011,10,24,15,57,10.00
2011,10,24,15,58,10.00
2011,10,24,15,59,10.10
2011,10,24,16,00,10.10
2011,10,24,16,01,10.10
2011,10,24,16,02,10.10
2011,10,24,16,03,10.00
2011,10,24,16,04,10.00
2011,10,24,16,05,10.00
2011,10,24,16,06,9.90
2011,10,24,16,07,9.90
2011,10,24,16,08,9.90
2011,10,24,16,09,9.90
2011,10,24,16,10,9.90
2011,10,24,16,11,9.90
2011,10,24,16,12,9.90
2011,10,24,16,13,9.90
2011,10,24,16,14,9.90
2011,10,24,16,15,9.90
2011,10,24,16,16,9.90
2011,10,24,16,17,9.90
2011,10,24,16,18,10.00
2011,10,24,16,19,10.00
2011,10,24,16,20,10.00
2011,10,24,16,21,10.10
2011,10,24,16,22,10.10
2011,10,24,16,23,10.10
2011,10,24,16,24,10.10
2011,10,24,16,25,10.10
2011,10,24,16,26,10.10
2011,10,24,16,27,10.10
2011,10,24,16,28,10.00
2011,10,24,16,29,10.00
2011,10,24,16,30,9.90
2011,10,24,16,31,9.90
2011,10,24,16,32,9.80
2011,10,24,16,33,9.70
2011,10,24,16,34,9.70
2011,10,24,16,35,9.60
2011,10,24,16,36,9.50
2011,10,24,16,37,9.50
2011,10,24,16,38,9.40
2011,10,24,16,39,9.30
2011,10,24,16,40,9.30
2011,10,24,16,41,9.30
2011,10,24,16,42,9.20
2011,10,24,16,43,9.20
2011,10,24,16,44,9.20
2011,10,24,16,45,9.10
2011,10,24,16,46,9.10
2011,10,24,16,47,9.10
2011,10,24,16,48,9.10
2011,10,24,16,49,9.00
2011,10,24,16,50,9.00
2011,10,24,16,51,9.00
2011,10,24,16,52,8.90
2011,10,24,16,53,8.90
2011,10,24,16,54,8.90
2011,10,24,16,55,8.90
2011,10,24,16,56,8.90
2011,10,24,16,57,8.80
2011,10,24,16,58,8.80
2011,10,24,16,59,8.80
2011,10,24,17,00,8.80
2011,10,24,17,01,8.80
2011,10,24,17,02,8.70
2011,10,24,17,03,8.70
2011,10,24,17,04,8.70
2011,10,24,17,05,8.60
2011,10,24,17,06,8.60
2011,10,24,17,07,8.60
2011,10,24,17,08,8.60
2011,10,24,17,09,8.50
2011,10,24,17,10,8.50
2011,10,24,17,11,8.40
2011,10,24,17,12,8.40
2011,10,24,17,13,8.40
2011,10,24,17,14,8.30
2011,10,24,17,15,8.30
2011,10,24,17,16,8.20
2011,10,24,17,17,8.20
2011,10,24,17,18,8.10
2011,10,24,17,19,8.10
2011,10,24,17,20,8.00
2011,10,24,17,21,8.00
2011,10,24,17,22,7.90
2011,10,24,17,23,7.90
2011,10,24,17,24,7.80
2011,10,24,17,25,7.80
2011,10,24,17,26,7.80
2011,10,24,17,27,7.70
2011,10,24,17,28,7.70
2011,10,24,17,29,7.60
2011,10,24,17,30,7.60
2011,10,24,17,31,7.50
2011,10,24,17,32,7.50
2011,10,24,17,33,7.40
2011,10,24,17,34,7.40
2011,10,24,17,35,7.40
2011,10,24,17,36,7.30
2011,10,24,17,37,7.30
2011,10,24,17,38,7.30
2011,10,24,17,39,7.20
2011,10,24,17,40,7.20
2011,10,24,17,41,7.20
2011,10,24,17,42,7.20
2011,10,24,17,43,7.10
2011,10,24,17,44,7.10
2011,10,24,17,45,7.10
2011,10,24,17,46,7.00
2011,10,24,17,47,7.00
2011,10,24,17,48,7.00
2011,10,24,17,49,6.90
2011,10,24,17,50,6.90
2011,10,24,17,51,6.90
2011,10,24,17,52,6.90
2011,10,24,17,53,6.90
2011,10,24,17,54,6.80
2011,10,24,17,55,6.80